Regional Weather Roundup
Issued by NWS Jackson, KY

Home | Current Version | Previous Version | Text Only | Print | Product List | Glossary On
Versions: 1 2 3 4 5 6 7 8 9 10 11 12 13 14 15 16 17 18 19 20 21 22 23 24 25 26 27 28 29 30 31 32 33 34 35 36 37 38 39 40 41 42 43 44 45 46 47 48 49 50
000
ASUS43 KJKL 210410
RWRJKL

EAST KENTUCKY HOURLY WEATHER ROUNDUP
NATIONAL WEATHER SERVICE JACKSON KY
1100 PM EST WED NOV 20 2019

NOTE: "FAIR" INDICATES FEW OR NO CLOUDS BELOW 12,000 FEET WITH
NO SIGNIFICANT WEATHER AND/OR OBSTRUCTIONS TO VISIBILITY.

* THESE REPORTS ARE NOT UNDER NWS QUALITY CONTROL AND MAY NOT
  REPORT WEATHER SUCH AS PRECIPITATION AND FOG.

KYZ079-080-083-085-087-088-110-112-115-119-120-210500
...EASTERN KENTUCKY...

CITY           SKY/WX    TMP DP  RH WIND       PRES   REMARKS
JACKSON        FAIR      42  38  85 SE3       30.26R
LONDON         FAIR      38  36  92 CALM      30.24F
SOMERSET*      FAIR      36  36 100 CALM      30.27R
MONTICELLO*    FAIR      36  36 100 VRB7      30.27S WCI  30
WILLIAMSBURG*  FAIR      41  39  93 E5        30.24S
MIDDLESBORO*   FAIR      37  37 100 CALM      30.27F
HARLAN APT*    FAIR      37  36  97 CALM      30.27R
PIKE CO APT*   FAIR      41  35  78 CALM      30.25F
BIG SANDY APT* FAIR      41  37  84 CALM      30.26S
MOREHEAD APT*  FAIR      41  37  87 CALM      30.27S
ASHLAND*       FAIR      38  37  97 VRB3      30.28S
$$

KYZ035-036-041-042-044-050-067-078-099-210500
...CENTRAL KENTUCKY...

CITY           SKY/WX    TMP DP  RH WIND       PRES   REMARKS
MT STERLING*   FAIR      36  36 100 CALM      30.28S
FLEMING/MASON* FAIR      41  40  95 CALM      30.28R
DANVILLE*      FAIR      36  34  93 CALM      30.26S
RICHMOND*      FAIR      37  37 100 CALM      30.25F
LEXINGTON      FAIR      42  37  82 SE7       30.24F
FRANKFORT      FAIR      38  37  97 CALM      30.24S
LOUISVILLE     CLOUDY    43  38  82 SE7       30.23F
LEBANON*       FAIR      41  41 100 E6        30.23F
GLASGOW*       FAIR      38  37  94 CALM      30.21F
BOWLING GREEN  FAIR      43  37  79 CALM      30.22F
$$

KYZ091>093-OHZ055-061-077-WVZ005-015-034-035-042-210500
...SOUTHERN OHIO/WEST VIRGINIA...

CITY           SKY/WX    TMP DP  RH WIND       PRES   REMARKS
COVINGTON      CLOUDY    40  36  86 S5        30.24F
COLUMBUS       MOCLDY    39  31  72 E5        30.25R
DAYTON         CLOUDY    44  39  82 S8        30.25R
WILMINGTON     FAIR      39  37  92 SW3       30.25R
HUNTINGTON     FAIR      41  36  82 CALM      30.26S
CHARLESTON     MOCLDY    39  35  86 CALM      30.28R
PINEVILLE*       N/A     36  33  92 MISG      30.31S
BECKLEY        FAIR      34  30  85 CALM      30.25R
BLUEFIELD      FAIR      36  32  85 W5        30.26R WCI  32
LOGAN CO APT*  FAIR      41  37  87 CALM      30.26S
$$

VAZ002-007-008-TNZ017-027-036-066-071-210500
...SOUTHWEST VIRGINIA/EAST TENNESSEE...

CITY           SKY/WX    TMP DP  RH WIND       PRES   REMARKS
WISE*          FAIR      41  34  75 SE5       30.25F
JONESVILLE*    DRIZZLE   36  36 100 MISG      30.29R
ABINGDON*      FAIR      35  32  88 CALM      30.26F
BRISTOL        FAIR      35  33  92 CALM      30.26F
MORRISTOWN*    CLEAR     41  37  87 CALM      30.25R
SEVIERVILLE*   CLEAR     37  37 100 NE3       30.25S
KNOXVILLE      MOCLDY    45  37  73 CALM      30.25R
LAFOLLETTE*    CLEAR     37  36  93 CALM      30.29R
OAK RIDGE      FAIR      42  37  82 CALM      30.27
CROSSVILLE     FAIR      39  33  79 CALM      30.24S
NASHVILLE      MOCLDY    45  37  73 S3        30.21S
$$

...KEY TO REMARKS...
VSB - VISIBILITY IN MILES
WCI - WIND CHILL INDEX
HX  - HEAT INDEX

$$



USA.gov is the U.S. government's official web portal to all federal, state and local government web resources and services.